When you browse on this site, cookies collect data to enhance your experience and personalize the content and advertising you see.
Visit our Privacy Policy to learn more. By continuing to use the site, you agree to this use of cookies and data.
  • In Spain
  • List of Countries
  • For 7 days
  • Water Temperature
  • Weather Map
  • Weather Widgets
  • user-avatar
    Login

    Hourly Weather Chortkiv

    Today, 7 June, Sunday

    Time Temperature Precipitation Wind Pressure Humidity
    00:00 +18°C° 0.1 mm 2 mps 731 mmHg 95%
    01:00 +17°C° 0.1 mm 2 mps 731 mmHg 95%
    02:00 +17°C° 0.1 mm 2 mps 731 mmHg 95%
    03:00 +17°C° 0.1 mm 2 mps 731 mmHg 96%
    04:00 +17°C° 0.1 mm 3 mps 731 mmHg 96%
    05:00 +17°C° 0.1 mm 3 mps 731 mmHg 96%
    06:00 +18°C° 0 mm 3 mps 731 mmHg 92%
    07:00 +19°C° 0 mm 4 mps 731 mmHg 88%
    08:00 +20°C° 0 mm 4 mps 731 mmHg 84%
    09:00 +21°C° 0 mm 5 mps 731 mmHg 79%
    10:00 +22°C° 0 mm 5 mps 731 mmHg 75%
    11:00 +23°C° 0 mm 6 mps 731 mmHg 70%
    12:00 +24°C° 0 mm 6 mps 731 mmHg 69%
    13:00 +24°C° 0 mm 7 mps 731 mmHg 68%
    14:00 +26°C° 0 mm 7 mps 731 mmHg 67%
    15:00 +26°C° 0.1 mm 7 mps 731 mmHg 68%
    16:00 +26°C° 0.1 mm 6 mps 730 mmHg 70%
    17:00 +25°C° 0.1 mm 5 mps 730 mmHg 71%
    18:00 +23°C° 0 mm 5 mps 730 mmHg 74%
    19:00 +21°C° 0 mm 5 mps 730 mmHg 77%
    20:00 +20°C° 0 mm 4 mps 730 mmHg 80%
    21:00 +19°C° 0 mm 4 mps 731 mmHg 80%
    22:00 +19°C° 0 mm 3 mps 731 mmHg 80%
    23:00 +18°C° 0 mm 3 mps 731 mmHg 80%

    Tomorrow, 8 June, Monday

    Time Temperature Precipitation Wind Pressure Humidity
    00:00 +17°C° 0 mm 3 mps 731 mmHg 80%
    01:00 +17°C° 0 mm 2 mps 731 mmHg 80%
    02:00 +16°C° 0 mm 2 mps 731 mmHg 81%
    03:00 +16°C° 0 mm 2 mps 731 mmHg 82%
    04:00 +16°C° 0 mm 3 mps 731 mmHg 82%
    05:00 +16°C° 0 mm 3 mps 731 mmHg 83%
    06:00 +17°C° 0 mm 3 mps 731 mmHg 81%
    07:00 +19°C° 0 mm 4 mps 731 mmHg 78%
    08:00 +20°C° 0 mm 4 mps 731 mmHg 76%
    09:00 +21°C° 0 mm 4 mps 731 mmHg 74%
    10:00 +23°C° 0 mm 4 mps 731 mmHg 71%
    11:00 +25°C° 0 mm 5 mps 731 mmHg 69%
    12:00 +25°C° 0.2 mm 5 mps 731 mmHg 70%
    13:00 +25°C° 0.2 mm 5 mps 731 mmHg 72%
    14:00 +26°C° 0.2 mm 5 mps 730 mmHg 73%
    15:00 +25°C° 0.8 mm 5 mps 730 mmHg 74%
    16:00 +25°C° 0.8 mm 5 mps 730 mmHg 76%
    17:00 +25°C° 0.8 mm 5 mps 730 mmHg 77%
    18:00 +23°C° 0.9 mm 4 mps 730 mmHg 79%
    19:00 +22°C° 0.9 mm 3 mps 730 mmHg 82%
    20:00 +20°C° 0.9 mm 3 mps 729 mmHg 84%
    21:00 +19°C° 1.1 mm 3 mps 730 mmHg 87%
    22:00 +19°C° 1.1 mm 3 mps 730 mmHg 90%
    23:00 +18°C° 1.1 mm 3 mps 730 mmHg 92%

    Day after tomorrow, 9 June, Tuesday

    Time Temperature Precipitation Wind Pressure Humidity
    00:00 +18°C° 0.1 mm 3 mps 730 mmHg 93%
    01:00 +17°C° 0.1 mm 2 mps 730 mmHg 93%
    02:00 +17°C° 0.1 mm 2 mps 730 mmHg 93%
    03:00 +17°C° 0.3 mm 2 mps 730 mmHg 93%
    04:00 +18°C° 0.3 mm 1 mps 730 mmHg 94%
    05:00 +16°C° 0.3 mm 1 mps 730 mmHg 95%
    06:00 +18°C° 0 mm 1 mps 730 mmHg 92%
    07:00 +20°C° 0 mm 1 mps 731 mmHg 90%
    08:00 +20°C° 0 mm 2 mps 731 mmHg 88%
    09:00 +21°C° 0.4 mm 2 mps 731 mmHg 86%
    10:00 +21°C° 0.4 mm 2 mps 731 mmHg 84%
    11:00 +23°C° 0.4 mm 2 mps 731 mmHg 82%
    12:00 +24°C° 0.7 mm 2 mps 731 mmHg 79%
    13:00 +24°C° 0.7 mm 2 mps 731 mmHg 77%
    14:00 +25°C° 0.7 mm 2 mps 731 mmHg 74%
    15:00 +25°C° 1.4 mm 2 mps 731 mmHg 76%
    16:00 +25°C° 1.4 mm 2 mps 731 mmHg 77%
    17:00 +25°C° 1.4 mm 2 mps 731 mmHg 79%
    18:00 +23°C° 1.1 mm 2 mps 731 mmHg 82%
    19:00 +21°C° 1.1 mm 2 mps 731 mmHg 85%
    20:00 +20°C° 1.1 mm 2 mps 730 mmHg 89%
    21:00 +19°C° 0 mm 2 mps 731 mmHg 89%
    22:00 +19°C° 0 mm 2 mps 731 mmHg 90%
    23:00 +18°C° 0 mm 2 mps 731 mmHg 91%

    10 June, Wednesday

    Time Temperature Precipitation Wind Pressure Humidity
    00:00 +19°C° 0.9 mm 1 mps 731 mmHg 92%
    01:00 +19°C° 0.9 mm 1 mps 731 mmHg 93%
    02:00 +18°C° 0.9 mm 1 mps 731 mmHg 94%
    03:00 +18°C° 0.7 mm 1 mps 731 mmHg 94%
    04:00 +18°C° 0.7 mm 1 mps 731 mmHg 95%
    05:00 +18°C° 0.7 mm 1 mps 731 mmHg 95%
    06:00 +19°C° 0 mm 1 mps 731 mmHg 93%
    07:00 +20°C° 0 mm 1 mps 731 mmHg 90%
    08:00 +21°C° 0 mm 1 mps 731 mmHg 87%
    09:00 +22°C° 0 mm 1 mps 731 mmHg 84%
    10:00 +23°C° 0 mm 1 mps 731 mmHg 81%
    11:00 +22°C° 0 mm 0 mps 731 mmHg 78%
    12:00 +25°C° 0.2 mm 1 mps 731 mmHg 76%
    13:00 +26°C° 0.2 mm 1 mps 731 mmHg 74%
    14:00 +26°C° 0.2 mm 2 mps 731 mmHg 72%
    15:00 +26°C° 1 mm 2 mps 730 mmHg 73%
    16:00 +26°C° 1 mm 2 mps 730 mmHg 75%
    17:00 +26°C° 1 mm 2 mps 730 mmHg 77%
    18:00 +24°C° 0.8 mm 2 mps 730 mmHg 80%
    19:00 +23°C° 0.8 mm 1 mps 730 mmHg 83%
    20:00 +21°C° 0.8 mm 1 mps 730 mmHg 85%
    21:00 +21°C° 0 mm 1 mps 730 mmHg 86%
    22:00 +19°C° 0 mm 2 mps 730 mmHg 87%
    23:00 +19°C° 0 mm 2 mps 730 mmHg 87%

    11 June, Thursday

    Time Temperature Precipitation Wind Pressure Humidity
    00:00 +19°C° 0.5 mm 2 mps 730 mmHg 89%
    01:00 +18°C° 0.5 mm 2 mps 730 mmHg 91%
    02:00 +18°C° 0.5 mm 2 mps 729 mmHg 92%
    03:00 +18°C° 0.2 mm 2 mps 729 mmHg 92%
    04:00 +18°C° 0.2 mm 2 mps 729 mmHg 92%
    05:00 +18°C° 0.2 mm 2 mps 729 mmHg 92%
    06:00 +19°C° 0 mm 2 mps 729 mmHg 90%
    07:00 +21°C° 0 mm 2 mps 729 mmHg 87%
    08:00 +23°C° 0 mm 2 mps 730 mmHg 84%
    09:00 +24°C° 0.6 mm 2 mps 730 mmHg 82%
    10:00 +25°C° 0.6 mm 3 mps 729 mmHg 79%
    11:00 +26°C° 0.6 mm 3 mps 729 mmHg 77%
    12:00 +26°C° 2.2 mm 4 mps 729 mmHg 75%
    13:00 +27°C° 2.2 mm 4 mps 729 mmHg 74%
    14:00 +27°C° 2.2 mm 4 mps 729 mmHg 72%
    15:00 +27°C° 0.7 mm 4 mps 729 mmHg 74%
    16:00 +27°C° 0.7 mm 4 mps 729 mmHg 76%
    17:00 +27°C° 0.7 mm 3 mps 728 mmHg 78%
    18:00 +26°C° 0.9 mm 3 mps 729 mmHg 80%
    19:00 +24°C° 0.9 mm 3 mps 729 mmHg 81%
    20:00 +23°C° 0.9 mm 2 mps 729 mmHg 82%
    21:00 +21°C° 0.1 mm 2 mps 729 mmHg 84%
    22:00 +20°C° 0.1 mm 2 mps 729 mmHg 86%
    23:00 +20°C° 0.1 mm 3 mps 729 mmHg 88%

    12 June, Friday

    Time Temperature Precipitation Wind Pressure Humidity
    00:00 +19°C° 0.5 mm 2 mps 729 mmHg 90%
    01:00 +19°C° 0.5 mm 2 mps 729 mmHg 92%
    02:00 +19°C° 0.5 mm 2 mps 729 mmHg 93%
    03:00 +20°C° 0.1 mm 1 mps 729 mmHg 93%
    04:00 +20°C° 0.1 mm 1 mps 729 mmHg 94%
    05:00 +20°C° 0.1 mm 1 mps 729 mmHg 94%
    06:00 +21°C° 0.2 mm 1 mps 729 mmHg 92%
    07:00 +22°C° 0.2 mm 1 mps 729 mmHg 90%
    08:00 +23°C° 0.2 mm 1 mps 729 mmHg 89%
    09:00 +24°C° 1.2 mm 1 mps 729 mmHg 81%
    10:00 +25°C° 1.2 mm 1 mps 729 mmHg 73%
    11:00 +27°C° 1.2 mm 1 mps 729 mmHg 66%
    12:00 +27°C° 0.4 mm 1 mps 729 mmHg 64%
    13:00 +28°C° 0.4 mm 2 mps 729 mmHg 63%
    14:00 +28°C° 0.4 mm 2 mps 729 mmHg 62%
    15:00 +28°C° 0.3 mm 1 mps 729 mmHg 63%
    16:00 +28°C° 0.3 mm 1 mps 728 mmHg 63%
    17:00 +28°C° 0.3 mm 1 mps 728 mmHg 64%
    18:00 +27°C° 1.1 mm 1 mps 728 mmHg 70%
    19:00 +25°C° 1.1 mm 1 mps 728 mmHg 77%
    20:00 +23°C° 1.1 mm 1 mps 728 mmHg 83%
    21:00 +22°C° 0.7 mm 1 mps 728 mmHg 85%
    22:00 +20°C° 0.7 mm 2 mps 728 mmHg 87%
    23:00 +19°C° 0.7 mm 2 mps 728 mmHg 89%
    Show more